Home > Weather > Vincennes > Past weeks

Flag for U.S.A. Weather for the Past 2 Weeks in Vincennes, Indiana, U.S.A.

Now
21 °F

Snow. Ice fog.


Feels Like: 8 °F
Forecast: 18 / 28 °F
Wind: 14 mph from Southeast

Location: Lawrenceville-Vincennes International Airport

Current Time: Feb 14, 2016 at 2:41:17 PM

Latest Report: Feb 14, 2016 at 1:53 PM


Visibility: 0 mi

Pressure: 30.19 "Hg

Humidity: 88%

Dew point: 18 °F

Location of VincennesLocation

Historic Weather in Vincennes — Graph

°F

Vincennes Temperature Yesterday

Maximum temperature yesterday: 23 °F (at 3:53 PM)
Minimum temperature yesterday: 11 °F (at 6:53 AM)
Average temperature yesterday: 17 °F

High & Low Weather Summary for the Past Weeks

 TemperatureHumidityPressure
High65 °F (Feb 2, 3:53 PM)97% (Feb 2, 11:53 AM)30.67 "Hg (Feb 2, 11:53 AM)
Low11 °F (Feb 13, 6:53 AM)30% (Feb 13, 3:53 PM)29.51 "Hg (Feb 2, 10:53 PM)
Average33 °F70%30.10 "Hg
* Reported Jan 30 12:53 PM — Feb 14 12:53 PM, Vincennes, Weather by CustomWeather, © 2016

Note: Actual official high and low records may vary slightly from our data, if they occured in-between our weather recording intervals... More about our weather records

Advertising

Vincennes Weather History for the Previous 24 Hours

 ConditionsComfort  
Time TempWeatherWind HumidityBarometerVisibility
12:53 PM
Sun, Feb 14
21 °FLight snow. Ice fog.13 mph85%30.25 "Hg1 mi
11:53 AM22 °FLight snow. Mostly cloudy.13 mph75%30.27 "Hg1 mi
10:53 AM21 °FOvercast.20 mph71%30.28 "Hg10 mi
9:53 AM20 °FOvercast.22 mph74%30.32 "Hg10 mi
8:53 AM19 °FOvercast.18 mph77%30.34 "Hg10 mi
8:00 AM18 °FLight snow. Ice fog.15 mph84%30.38 "Hg5 mi
6:53 AM19 °FOvercast.13 mph74%30.42 "Hg10 mi
5:53 AM19 °FLight snow. Overcast.10 mph71%30.45 "Hg3 mi
4:53 AM19 °FLight snow. Overcast.10 mph68%30.44 "Hg5 mi
3:53 AM20 °FLight snow. Overcast.9 mph60%30.44 "Hg8 mi
2:53 AM20 °FOvercast.8 mph48%30.46 "Hg10 mi
1:53 AM20 °FOvercast.7 mph48%30.48 "Hg10 mi
12:53 AM20 °FOvercast.8 mph48%30.49 "Hg10 mi
11:53 PM
Sat, Feb 13
19 °FPassing clouds.8 mph49%30.50 "Hg10 mi
10:53 PM19 °FClear.8 mph54%30.51 "Hg10 mi
9:53 PM19 °FClear.7 mph52%30.53 "Hg10 mi
8:53 PM19 °FClear.5 mph54%30.55 "Hg10 mi
7:53 PM19 °FClear.3 mph52%30.57 "Hg10 mi
6:53 PM19 °FClear.6 mph47%30.58 "Hg10 mi
5:53 PM20 °FSunny.7 mph38%30.58 "Hg10 mi
4:53 PM22 °FSunny.10 mph33%30.58 "Hg10 mi
3:53 PM23 °FSunny.10 mph30%30.59 "Hg10 mi
2:53 PM21 °FSunny.6 mph34%30.60 "Hg10 mi
Weather by CustomWeather, © 2016

See weather overviewHow to use our weather pages